Regional Weather Roundup
Issued by NWS

Home | Current Version | Previous Version | Graphics & Text | Print | Product List | Glossary On
Versions: 1 2 3 4 5 6 7 8 9 10 11 12 13 14 15 16 17 18 19 20 21 22 23 24 25 26 27 28 29 30 31 32 33 34 35 36 37 38 39 40 41 42 43 44 45 46 47 48 49 50
107
ASUS43 KLOT 230107
RWRIL

ILLINOIS REGIONAL WEATHER ROUNDUP
NATIONAL WEATHER SERVICE CHICAGO/ROMEOVILLE IL
800 PM CDT WED MAR 22 2017

NOTE: "FAIR" INDICATES FEW OR NO CLOUDS BELOW 12,000 FEET WITH NO
SIGNIFICANT WEATHER AND/OR OBSTRUCTIONS TO VISIBILITY.

* THESE STATIONS ARE NOT UNDER NWS QUALITY CONTROL. THEY ALSO MAY NOT
  REPORT WEATHER SUCH AS PRECIPITATION OR FOG.

ILZ001-002-007-009-015-016-024-230200-
NORTHWEST ILLINOIS

CITY           SKY/WX    TMP DP  RH WIND       PRES   REMARKS
MOLINE         CLOUDY    40  22  48 SE12      30.42F
STERLING*      MOCLDY    37  22  54 SE9       30.45F WCI  30
SAVANNA*       CLOUDY    38  22  52 SE8       30.44S WCI  32
$$

ILZ003-004-008-010-011-017-018-230200-
NORTH CENTRAL ILLINOIS

CITY           SKY/WX    TMP DP  RH WIND       PRES   REMARKS
ROCKFORD       CLOUDY    35  18  49 E9        30.48S WCI  28
FREEPORT*      PTCLDY    32  18  58 E6        30.46F WCI  26
ROCHELLE*      CLOUDY    35  19  51 E12       30.47R WCI  26
DE KALB*       CLOUDY    32  17  54 E10       30.47S WCI  24
PERU*          PTCLDY    36  19  51 E8        30.47R WCI  29
$$

ILZ005-006-012>014-019>023-230200-
NORTHEAST ILLINOIS

CITY           SKY/WX    TMP DP  RH WIND       PRES   REMARKS
CHICAGO-OHARE  MOCLDY    30  17  58 NE8       30.49F WCI  22
CHICAGO-MIDWAY MOCLDY    31  19  61 N10       30.50F WCI  22
AURORA         CLOUDY    33  16  49 E9        30.48S WCI  25
LANSING*       PTCLDY    30  23  74 NE8       30.51R WCI  22
JOLIET*        PTCLDY    33  20  59 E8        30.49S WCI  26
WAUKEGAN       MOCLDY    27  19  72 NE7       30.50F WCI  19
DUPAGE AIRPORT PTCLDY    30  18  60 E9        30.48S WCI  22
KANKAKEE*      CLEAR     32  22  65 NE8       30.48S WCI  25
WHEELING       PTCLDY    28  18  66 E5        30.52S WCI  23
MORRIS*        PTCLDY    33  20  58 E6        30.47S WCI  27
ROMEOVILLE*    PTCLDY    31  22  70 E8        30.49S WCI  23
NORTHERLY ISL    N/A     29  19  66 N6          N/A  WCI  23
$$

LMZ740>746-230200-
SOUTHERN LAKE MICHIGAN

STATION/POSITION SKY/WX   TEMP    WIND        PRES    VSBY  WAVE
                          AIR SEA DIR/SP/G                  HT/PER
                          (F)     (DEG/KT/KT) (MB)    (MI)  (FT/S)
HARRISON CRIB              30      30/  6/  7   N/A
BURNHAM HARBOR             29      60/  5/  8   N/A
CALUMET HARBOR             30      40/  6/ 10 1032.3F
BURNS HARBOR               31      60/ 11/ 12 1033.2F
MICHIGAN CITY              30      30/ 13/ 14   N/A
$$

ILZ025>027-034>036-040-047-049-050-058-095>099-230200-
WEST-CENTRAL ILLINOIS

CITY           SKY/WX    TMP DP  RH WIND       PRES   REMARKS
QUINCY         CLOUDY    44  10  25 E14       30.35F
GALESBURG*     CLOUDY    38  21  50 E7        30.40F WCI  33
MACOMB*        CLOUDY    40  15  35 E12       30.42S
JACKSONVILLE*  CLOUDY    41  15  35 E12       30.39F
PITTSFIELD*    CLOUDY    45  12  26 E9        30.38F
$$

ILZ028>032-037-038-041>044-048-051>054-059>061-230200-
CENTRAL ILLINOIS

CITY           SKY/WX    TMP DP  RH WIND       PRES   REMARKS
PONTIAC        CLOUDY    35  24  65 E9        30.47S WCI  28
BLOOMINGTON    PTCLDY    33  22  63 E10       30.44S WCI  25
DECATUR        PTCLDY    37  18  46 E13       30.43S WCI  29
PEORIA         PTCLDY    38  21  50 E9        30.44F WCI  31
LACON*         MOCLDY    36  21  55 E6        30.45S WCI  31
LINCOLN*       CLOUDY    38  23  53 E8        30.43F WCI  32
SPRINGFIELD    PTCLDY    42  17  36 E8        30.42S
TAYLORVILLE    CLOUDY    41  14  34 E10       30.41F
$$

ILZ033-039-045-046-055>057-062-063-230200-
EAST-CENTRAL ILLINOIS

CITY           SKY/WX    TMP DP  RH WIND       PRES   REMARKS
CHAMPAIGN      PTCLDY    34  19  54 E8        30.45R WCI  27
RANTOUL*       CLEAR     35  26  68 NE8       30.46R WCI  29
MATTOON        PTCLDY    37  20  50 NE10      30.42R WCI  30
PARIS*         PTCLDY    36  24  61 NE7       30.45R WCI  30
$$

ILZ079-100>102-230200-
SOUTHWEST ILLINOIS

CITY           SKY/WX    TMP DP  RH WIND       PRES   REMARKS
ALTON          PTCLDY    43  18  36 E9        30.38S
BELLEVILLE     PTCLDY    44  19  37 NE7       30.37S
CAHOKIA*       CLEAR     45  17  32 E9        30.37S
SPARTA*        CLEAR     43  23  45 E6        30.38S
$$

ILZ064>066-069>071-074>076-080>082-084>086-088>090-092>094-230200-
SOUTH-CENTRAL ILLINOIS

CITY           SKY/WX    TMP DP  RH WIND       PRES   REMARKS
CARBONDALE     CLEAR     44  24  45 NE6       30.37R
CAIRO*         CLEAR     48  29  47 NE9       30.34F
EFFINGHAM*     PTCLDY   N/A N/A N/A NE5       30.43S
MARION         CLEAR     45  21  39 NE5       30.38S
MT. VERNON     CLEAR     41  20  43 NE5       30.39S
CENTRALIA*     PTCLDY    44  24  45 NE5       30.39R
SALEM*         PTCLDY    45  19  35 NE3       30.39S
METROPOLIS*    CLEAR     48  21  35 NE5       30.36S
$$

ILZ067-068-072-073-078-083-087-091-230200-
SOUTHEAST ILLINOIS

CITY           SKY/WX    TMP DP  RH WIND       PRES   REMARKS
LAWRENCEVILLE  PTCLDY    42  16  34 NE12      30.42S
FLORA*         PTCLDY    43  23  44 NE5       30.41R
FAIRFIELD*     PTCLDY    43  21  41 NE5       30.39R
HARRISBURG*    CLEAR     45  23  41 E5        30.38S
ROBINSON*      PTCLDY    39  17  42 E9        30.44S WCI  33
CARMI*         MOCLDY    43  20  40 NE8       30.39S
$$

ABBREVIATIONS USED IN REMARKS
   TC - TEMPERATURE IN CELSIUS
  WCI - WIND CHILL INDEX
   HX - HEAT INDEX
  VSB - VISIBILITY
$$





USA.gov is the U.S. government's official web portal to all federal, state and local government web resources and services.